Waarnemingen

Advertentie
Mijn weer
Bolzano, Italië (16020): temperatuur & dauwpunt: 17.01.2018 02:00:00 - 23.01.2018 02:00:00 (CET)Bolzano, Italië (16020): windsnelheid: 17.01.2018 02:00:00 - 23.01.2018 02:00:00 (CET)Bolzano, Italië (16020): windrichting: 17.01.2018 02:00:00 - 23.01.2018 02:00:00 (CET)Bolzano, Italië (16020): luchtdruk: 17.01.2018 02:00:00 - 23.01.2018 02:00:00 (CET)Bolzano, Italië (16020): zicht: 17.01.2018 02:00:00 - 23.01.2018 02:00:00 (CET)Bolzano, Italië (16020): neerslag: 17.01.2018 02:00:00 - 23.01.2018 02:00:00 (CET)
Datum & Tijd tt [°C] td [°C] ff [km/u] ff [kn] dd ppp [hPa] vv [km] rr [mm]
23.01.2018 02:00:00 - - - - - - - -
23.01.2018 01:00:00 -1,9 -2,6 4 2 ZW 1018,5 - 0,0
23.01.2018 00:00:00 - - - - - - - -
22.01.2018 23:00:00 0,0 0,0 0 0 N - 10 -
22.01.2018 22:00:00 -0,2 -1,8 2 1 N 1017,2 10 -
22.01.2018 21:00:00 3,0 1,0 5 3 NNO - 10 -
22.01.2018 20:00:00 4,0 1,0 5 3 NNO - 10 -
22.01.2018 19:00:00 4,9 -0,4 9 5 NNW 1015,4 10 0,0
22.01.2018 18:00:00 6,0 0,0 4 2 - - 10 -
22.01.2018 17:00:00 6,0 -1,0 8 4 N - 10 -
22.01.2018 16:00:00 6,3 -2,2 4 2 ZW 1014,0 35 -
22.01.2018 15:00:00 8,0 -2,0 5 3 N - 10 -
22.01.2018 14:00:00 8,0 -3,0 2 1 - - 10 -
22.01.2018 13:00:00 6,9 -3,4 4 2 WZW 1016,5 30 0,0
22.01.2018 12:00:00 6,0 -3,0 2 1 - - 10 -
22.01.2018 11:00:00 4,0 -2,0 0 0 N - 10 -
22.01.2018 10:00:00 3,5 -2,7 4 2 O 1019,1 30 -
22.01.2018 09:00:00 -1,0 -3,0 2 1 ZZO - 10 -
22.01.2018 08:00:00 0,0 -3,0 2 1 NW - 10 -
22.01.2018 07:00:00 0,0 -4,2 2 1 ZO 1019,1 10 0,0
22.01.2018 06:00:00 - - - - - - - -
22.01.2018 05:00:00 - - - - - - - -
22.01.2018 04:00:00 -0,2 -4,8 2 1 ZZO 1018,1 - -
22.01.2018 03:00:00 - - - - - - - -
22.01.2018 02:00:00 - - - - - - - -
22.01.2018 01:00:00 0,5 -5,6 5 3 ZO 1017,8 - 0,0
22.01.2018 00:00:00 - - - - - - - -
21.01.2018 23:00:00 2,0 -6,0 9 5 ZZO - 10 -
21.01.2018 22:00:00 3,0 -6,4 8 4 OZO 1016,3 15 -
21.01.2018 21:00:00 5,0 -7,0 15 8 - - 10 -
21.01.2018 20:00:00 4,0 -5,0 13 7 NNW - 10 -
21.01.2018 19:00:00 5,1 -6,8 16 9 NW 1015,7 15 -
21.01.2018 18:00:00 5,0 -6,0 13 7 NW - 10 -
21.01.2018 17:00:00 8,0 -8,0 9 5 - - 10 -
21.01.2018 16:00:00 7,0 -0,7 11 6 NNW 1012,9 25 -
21.01.2018 15:00:00 7,0 1,0 13 7 NW - 10 -
21.01.2018 14:00:00 6,0 1,0 8 4 - - 10 -
21.01.2018 13:00:00 5,9 1,4 2 1 Z 1010,4 25 -
21.01.2018 12:00:00 4,0 2,0 5 3 N - 10 -
21.01.2018 11:00:00 2,0 2,0 0 0 N - 6 -
21.01.2018 10:00:00 0,9 0,9 2 1 WNW 1009,3 6 -
21.01.2018 09:00:00 1,0 1,0 4 2 - - 4,0 -
21.01.2018 08:00:00 0,0 0,0 0 0 N - 4,0 -
21.01.2018 07:00:00 0,1 0,1 2 1 ZZO 1007,9 2,5 -
21.01.2018 06:00:00 - - - - - - - -
21.01.2018 05:00:00 - - - - - - - -
21.01.2018 04:00:00 0,5 0,4 4 2 N 1005,8 - -
21.01.2018 03:00:00 - - - - - - - -
21.01.2018 02:00:00 - - - - - - - -
21.01.2018 01:00:00 1,6 0,8 8 4 NNO 1006,6 - 0,0
21.01.2018 00:00:00 - - - - - - - -
20.01.2018 23:00:00 3,0 -1,0 8 4 N - 10 -
20.01.2018 22:00:00 2,8 -4,2 2 1 ZZO 1007,0 15 -
20.01.2018 21:00:00 2,0 -4,0 4 2 - - 10 -
20.01.2018 20:00:00 3,0 -5,0 5 3 - - 10 -
20.01.2018 19:00:00 1,9 -3,8 5 3 WNW 1008,2 15 0,0
20.01.2018 18:00:00 4,0 -5,0 2 1 - - 10 -
20.01.2018 17:00:00 4,0 -6,0 2 1 N - 10 -
20.01.2018 16:00:00 5,5 -6,0 4 2 ZZO 1009,8 20 -
20.01.2018 15:00:00 6,0 -5,0 2 1 - - 10 -
20.01.2018 14:00:00 7,0 -5,0 5 3 ZZW - 10 -
20.01.2018 13:00:00 6,4 -5,9 4 2 ZZW 1012,5 45 0,0
20.01.2018 12:00:00 5,0 -5,0 0 0 N - 10 -
20.01.2018 11:00:00 3,0 -4,0 4 2 - - 10 -
20.01.2018 10:00:00 0,5 -3,7 2 1 ZO 1016,5 45 -
20.01.2018 09:00:00 -4,0 -6,0 0 0 N - 10 -
20.01.2018 08:00:00 -4,0 -6,0 4 2 - - 10 -
20.01.2018 07:00:00 -4,3 -6,2 2 1 WNW 1016,6 10 0,0
20.01.2018 06:00:00 - - - - - - - -
20.01.2018 05:00:00 - - - - - - - -
20.01.2018 04:00:00 -1,7 -5,3 5 3 ZO 1015,5 - -
20.01.2018 03:00:00 - - - - - - - -
20.01.2018 02:00:00 - - - - - - - -
20.01.2018 01:00:00 -1,0 -5,3 2 1 ZW 1015,3 - 0,0
20.01.2018 00:00:00 - - - - - - - -
19.01.2018 23:00:00 0,0 -4,0 5 3 ONO - 10 -
19.01.2018 22:00:00 -0,9 -4,8 2 1 W 1014,2 15 -
19.01.2018 21:00:00 0,0 -4,0 4 2 Z - 10 -
19.01.2018 20:00:00 0,0 -4,0 0 0 N - 10 -
19.01.2018 19:00:00 0,9 -3,3 2 1 NNO 1012,2 15 0,0
19.01.2018 18:00:00 1,0 -2,0 2 1 - - 10 -
19.01.2018 17:00:00 3,0 -2,0 4 2 - - 10 -
19.01.2018 16:00:00 5,5 -2,0 4 2 ZZO 1010,2 50 -
19.01.2018 15:00:00 8,0 -2,0 5 3 - - 10 -
19.01.2018 14:00:00 7,0 -2,0 0 0 N - 10 -
19.01.2018 13:00:00 5,0 -2,9 4 2 WNW 1010,8 10 0,0
19.01.2018 12:00:00 4,0 -2,0 0 0 N - 10 -
19.01.2018 11:00:00 4,0 -3,0 0 0 N - 10 -
19.01.2018 10:00:00 1,0 -1,8 0 0 N 1011,0 10 -
19.01.2018 09:00:00 -1,0 -3,0 0 0 N - 10 -
19.01.2018 08:00:00 -3,0 -4,0 0 0 N - 10 -
19.01.2018 07:00:00 -2,9 -4,4 2 1 - 1010,7 10 0,0
19.01.2018 06:00:00 - - - - - - - -
19.01.2018 05:00:00 - - - - - - - -
19.01.2018 04:00:00 -3,0 -4,1 2 1 ONO 1011,3 - -
19.01.2018 03:00:00 - - - - - - - -
19.01.2018 02:00:00 - - - - - - - -
19.01.2018 01:00:00 -2,9 -4,8 4 2 NNO 1012,2 - 0,0
19.01.2018 00:00:00 - - - - - - - -
18.01.2018 23:00:00 -2,0 -4,0 4 2 - - 10 -
18.01.2018 22:00:00 -2,1 -4,5 5 3 - 1013,3 10 -
18.01.2018 21:00:00 -1,0 -4,0 2 1 - - 10 -
18.01.2018 20:00:00 -2,0 -4,0 2 1 - - 10 -
18.01.2018 19:00:00 0,6 -3,1 2 1 - 1013,2 10 0,0
18.01.2018 18:00:00 1,0 -3,0 2 1 - - 10 -
18.01.2018 17:00:00 4,0 -2,0 0 0 N - 10 -
18.01.2018 16:00:00 4,8 -3,3 4 2 - 1012,6 10 -
18.01.2018 15:00:00 8,0 -4,0 4 2 - - 10 -
18.01.2018 14:00:00 8,0 -5,0 2 1 - - 10 -
18.01.2018 13:00:00 7,0 -4,7 2 1 - 1014,2 10 0,0
18.01.2018 12:00:00 4,0 -4,0 2 1 - - 10 -
18.01.2018 11:00:00 2,0 -3,0 5 3 - - 10 -
18.01.2018 10:00:00 2,7 -3,0 2 1 ZZO 1017,2 15 -
18.01.2018 09:00:00 -1,0 -3,0 5 3 O - 10 -
18.01.2018 08:00:00 -2,0 -5,0 5 3 - - 10 -
18.01.2018 07:00:00 -1,2 -4,5 5 3 - 1016,9 10 0,0
18.01.2018 06:00:00 - - - - - - - -
18.01.2018 05:00:00 - - - - - - - -
18.01.2018 04:00:00 0,0 -4,0 9 5 N 1016,7 - -
18.01.2018 03:00:00 - - - - - - - -
18.01.2018 02:00:00 - - - - - - - -
18.01.2018 01:00:00 1,0 -3,4 2 1 NO 1016,0 - 0,0
18.01.2018 00:00:00 - - - - - - - -
17.01.2018 23:00:00 1,0 -2,0 0 0 N - 10 -
17.01.2018 22:00:00 1,2 -3,4 5 3 ZO 1014,0 10 -
17.01.2018 21:00:00 2,0 -3,0 0 0 N - 10 -
17.01.2018 20:00:00 3,0 -4,0 0 0 N - 10 -
17.01.2018 19:00:00 2,9 -4,6 5 3 W 1010,4 10 0,0
17.01.2018 18:00:00 4,0 -4,0 5 3 ZZO - 10 -
17.01.2018 17:00:00 5,0 -4,0 5 3 N - 10 -
17.01.2018 16:00:00 4,9 -3,7 5 3 - 1007,2 10 -
17.01.2018 15:00:00 6,0 -5,0 15 8 - - 10 -
17.01.2018 14:00:00 6,0 -5,0 22 12 NNW - 10 -
17.01.2018 13:00:00 6,7 0,2 8 4 - 1003,0 8 0,0
17.01.2018 12:00:00 4,0 1,0 8 4 - - 7 -
17.01.2018 11:00:00 3,0 1,0 5 3 - - 9 -
17.01.2018 10:00:00 2,6 0,0 8 4 - 1002,9 9 -
17.01.2018 09:00:00 1,0 -1,0 2 1 ZO - 8 -
17.01.2018 08:00:00 0,0 0,0 4 2 WNW - 6 -
17.01.2018 07:00:00 -1,7 -1,7 4 2 - 1000,3 8 0,0
17.01.2018 06:00:00 - - - - - - - -
17.01.2018 05:00:00 - - - - - - - -
17.01.2018 04:00:00 -0,3 -0,7 5 3 NNW 1000,9 - -
17.01.2018 03:00:00 - - - - - - - -
17.01.2018 02:00:00 - - - - - - - -

tt = temperatuur
td = dauwpunt
ff = windsnelheid
dd = windrichting
ppp = luchtdruk
vv = zicht
rr = neerslag

Weerstations in de omgeving